TimeCDT,TemperatureF,Dew PointF,Humidity,Sea Level PressureIn,VisibilityMPH,Wind Direction,Wind SpeedMPH,Gust SpeedMPH,PrecipitationIn,Events,Conditions,WindDirDegrees,DateUTC
12:53 AM,48.0,33.1,56,30.33,10.0,Calm,Calm,-,N/A,,Clear,0,2012-09-14 05:53:00
1:53 AM,48.0,35.1,61,30.34,10.0,NNE,3.5,-,N/A,,Clear,30,2012-09-14 06:53:00
2:53 AM,39.0,33.1,79,30.34,10.0,Calm,Calm,-,N/A,,Clear,0,2012-09-14 07:53:00
3:53 AM,37.9,32.0,79,30.35,10.0,Calm,Calm,-,N/A,,Clear,0,2012-09-14 08:53:00
4:53 AM,37.9,34.0,86,30.35,10.0,Calm,Calm,-,N/A,,Clear,0,2012-09-14 09:53:00
5:53 AM,36.0,32.0,86,30.36,10.0,Calm,Calm,-,N/A,,Clear,0,2012-09-14 10:53:00
6:53 AM,32.0,28.9,88,30.38,10.0,Calm,Calm,-,N/A,,Clear,0,2012-09-14 11:53:00
7:53 AM,36.0,33.1,89,30.38,10.0,Calm,Calm,-,N/A,,Clear,0,2012-09-14 12:53:00
8:53 AM,48.9,41.0,74,30.37,10.0,Calm,Calm,-,N/A,,Clear,0,2012-09-14 13:53:00
9:53 AM,55.9,37.9,51,30.37,10.0,Calm,Calm,-,N/A,,Clear,0,2012-09-14 14:53:00
10:53 AM,61.0,34.0,36,30.37,10.0,Calm,Calm,-,N/A,,Clear,0,2012-09-14 15:53:00
11:53 AM,64.0,32.0,30,30.36,10.0,Calm,Calm,-,N/A,,Clear,0,2012-09-14 16:53:00
12:53 PM,66.0,30.9,27,30.36,10.0,NNW,10.4,-,N/A,,Clear,340,2012-09-14 17:53:00
1:53 PM,66.9,30.0,25,30.34,10.0,NNE,6.9,-,N/A,,Clear,30,2012-09-14 18:53:00
2:53 PM,69.1,30.0,23,30.33,10.0,Variable,3.5,-,N/A,,Clear,0,2012-09-14 19:53:00
3:53 PM,70.0,30.0,23,30.31,10.0,NNE,9.2,-,N/A,,Clear,20,2012-09-14 20:53:00
4:53 PM,69.1,30.9,24,30.30,10.0,Calm,Calm,-,N/A,,Clear,0,2012-09-14 21:53:00
5:53 PM,69.1,30.0,23,30.29,10.0,East,5.8,-,N/A,,Clear,90,2012-09-14 22:53:00
6:53 PM,66.0,30.0,26,30.30,10.0,ESE,4.6,-,N/A,,Clear,120,2012-09-14 23:53:00
7:53 PM,60.1,35.1,39,30.30,10.0,ESE,5.8,-,N/A,,Clear,110,2012-09-15 00:53:00
8:53 PM,57.0,36.0,45,30.29,10.0,ESE,4.6,-,N/A,,Clear,110,2012-09-15 01:53:00
9:53 PM,55.0,35.1,47,30.28,10.0,ESE,4.6,-,N/A,,Clear,120,2012-09-15 02:53:00
10:53 PM,54.0,34.0,47,30.27,10.0,ESE,3.5,-,N/A,,Clear,120,2012-09-15 03:53:00
11:53 PM,52.0,34.0,50,30.25,10.0,SE,4.6,-,N/A,,Clear,130,2012-09-15 04:53:00